Home > Weather > Orenburg > Past weeks

Flag for Russia Past Weather in Orenburg, Russia — Yesterday and Last 2 Weeks

Now
70 °F

Scattered clouds.


Feels Like: 70 °F
Forecast: 62 / 78 °F
Wind: 6 mph from North

Location: Orenburg / Tsentralny

Current Time: Jul 23, 2016 at 8:01:22 PM

Latest Report: Jul 23, 2016 at 7:30 PM


Visibility: N/A

Pressure: 29.77 "Hg

Humidity: 78%

Dew Point: 63 °F

Location of OrenburgLocation

Past Weather in Orenburg — Graph

°F

Orenburg Temperature Yesterday

Maximum temperature yesterday: 82 °F (at 1:30 PM)
Minimum temperature yesterday: 61 °F (at 5:30 AM)
Average temperature yesterday: 73 °F

High & Low Weather Summary for the Past Weeks

 TemperatureHumidityPressure
High91 °F (Jul 17, 5:30 PM)100% (Jul 9, 9:00 PM)29.98 "Hg (Jul 9, 9:00 PM)
Low54 °F (Jul 11, 4:30 AM)19% (Jul 12, 3:00 PM)29.65 "Hg (Jul 18, 12:30 PM)
Average74 °F52%29.83 "Hg
* Reported Jul 8 7:00 PM — Jul 23 7:00 PM, Orenburg, Weather by CustomWeather, © 2016

Note: Actual official high and low records may vary slightly from our data, if they occured in-between our weather recording intervals... More about our weather records

Advertising

Orenburg Weather History for the Previous 24 Hours

Scroll right to see more
 ConditionsComfort  
Time TempWeatherWind HumidityBarometerVisibility
7:00 PM
Sat, Jul 23
70 °FScattered clouds.6 mph69%29.77 "HgN/A
6:30 PM70 °FScattered clouds.3 mph69%29.77 "HgN/A
6:00 PM68 °FScattered clouds.3 mph78%29.77 "HgN/A
5:30 PM68 °FScattered clouds.3 mph83%29.80 "HgN/A
5:00 PM66 °FScattered clouds.1 mph83%29.80 "Hg4 mi
4:30 PM64 °FFog.6 mph94%29.80 "Hg3 mi
4:00 PM63 °FThunderstorms. Partly sunny.6 mph94%29.83 "Hg1 mi
3:30 PM66 °FMild.N/A83%29.83 "Hg1 mi
3:00 PM77 °FScattered clouds.8 mph47%29.77 "Hg4 mi
2:30 PM77 °FScattered clouds.8 mph47%29.77 "Hg4 mi
2:00 PM77 °FClear.13 mph51%29.77 "Hg4 mi
1:30 PM79 °FClear.10 mph45%29.77 "Hg4 mi
1:00 PM81 °FClear.8 mph45%29.77 "Hg4 mi
12:30 PM79 °FClear.13 mph45%29.77 "Hg5 mi
12:00 PM79 °FClear.10 mph45%29.77 "Hg4 mi
11:30 AM77 °FClear.13 mph51%29.77 "Hg5 mi
11:00 AM77 °FClear.13 mph51%29.77 "Hg4 mi
10:30 AM75 °FClear.10 mph54%29.77 "Hg5 mi
10:00 AM75 °FClear.10 mph54%29.77 "Hg5 mi
9:30 AM75 °FHaze.8 mph50%29.77 "HgN/A
9:00 AM73 °FHaze.8 mph53%29.77 "HgN/A
8:30 AM73 °FHaze.8 mph53%29.77 "HgN/A
8:00 AM72 °FHaze.6 mph57%29.77 "HgN/A
7:30 AM70 °FHaze.3 mph60%29.80 "Hg2 mi
7:00 AM68 °FHaze.6 mph64%29.80 "Hg2 mi
6:30 AM66 °FHaze.6 mph68%29.80 "Hg2 mi
6:00 AM66 °FHaze.6 mph68%29.80 "Hg2 mi
5:30 AM66 °FHaze.6 mph68%29.80 "Hg2 mi
5:00 AM66 °FHaze.6 mph64%29.80 "Hg2 mi
4:30 AM66 °FHaze.6 mph64%29.80 "Hg2 mi
4:00 AM66 °FHaze.6 mph64%29.83 "Hg2 mi
3:30 AM68 °FHaze.3 mph60%29.83 "Hg3 mi
3:00 AM70 °FHaze.1 mph57%29.83 "Hg3 mi
2:30 AM70 °FHaze.1 mph57%29.83 "Hg3 mi
2:00 AM70 °FHaze.3 mph57%29.86 "Hg3 mi
1:30 AM70 °FHaze.6 mph57%29.86 "Hg3 mi
1:00 AM70 °FHaze.1 mph57%29.86 "Hg3 mi
12:30 AM70 °FHaze.3 mph57%29.86 "Hg3 mi
12:00 AM70 °FHaze.3 mph57%29.86 "Hg3 mi
11:30 PM
Fri, Jul 22
70 °FHaze.6 mph57%29.86 "Hg3 mi
11:00 PM72 °FHaze.3 mph53%29.86 "Hg3 mi
10:30 PM72 °FHaze.6 mph53%29.86 "Hg3 mi
10:00 PM72 °FHaze.6 mph57%29.89 "Hg3 mi
9:00 PM73 °FPartly sunny.3 mph50%29.89 "Hg3 mi
8:30 PM75 °FPartly sunny.1 mph47%29.89 "Hg3 mi
8:00 PM77 °FPartly sunny.8 mph44%29.89 "Hg3 mi
Weather by CustomWeather, © 2016

See weather overviewHow to use our weather pages